Lawton, OK

11:59 PM CDT on August 23, 2016 (GMT -0500)
Lawton-Fort Sill Regional

Weather History for KLAW - October, 2013

Change the Weather History Date:

Thursday, October 31, 2013

  Actual Average Record
Temperature  
Mean Temperature 58 °F -  
Max Temperature 70 °F 67 °F 88 °F (1950)
Min Temperature 45 °F 45 °F 20 °F (1993)
Degree Days  
Heating Degree Days 6    
Growing Degree Days 8 (Base 50)    
Moisture  
Dew Point 50 °F    
Average Humidity 70    
Maximum Humidity 100    
Minimum Humidity 32    
Precipitation  
Precipitation 0.04 in - - ()
Sea Level Pressure  
Sea Level Pressure 29.74 in    
Wind  
Wind Speed 10 mph (WSW)    
Max Wind Speed 22 mph    
Max Gust Speed 33 mph    
Visibility 10 miles    
Events Rain    
Averages and records for this station are not official NWS values.
T = Trace of Precipitation, MM = Missing Value Source: NWS Daily Summary

Daily Weather History Graph

Daily Weather History Graph

Search for Another Location

Airport or City:

Trip Planner

Search our weather history database for the weather conditions in past years. The results will help you decide how hot, cold, wet, or windy it might be!

Date:

Astronomy

Oct. 31, 2013 Rise Set
Actual Time 7:53 AM CDT 6:40 PM CDT
Civil Twilight 7:27 AM CDT 7:06 PM CDT
Nautical Twilight 6:57 AM CDT 7:36 PM CDT
Astronomical Twilight 6:28 AM CDT 8:05 PM CDT
Moon 4:51 AM CDT (10/31) 4:53 PM CDT (10/31)
Length of Visible Light 11h 39m
Length of Day
10h 47m
Waning Crescent, 10% of the Moon is Illuminated
Oct 31
Waning Crescent
Nov 3
New
Nov 9
First Quarter
Nov 17
Full
Nov 25
Last Quarter

Hourly Weather History & Observations

Time (CDT) Temp. Dew Point Humidity Pressure Visibility Wind Dir Wind Speed Gust Speed Precip Events Conditions
12:08 AM 68.0 °F 66.2 °F 94% 29.72 in 9.0 mi SSE 11.5 mph - 0.00 in Rain Light Rain
12:33 AM 66.2 °F 66.2 °F 100% 29.71 in 7.0 mi SSE 11.5 mph - 0.00 in   Overcast
12:42 AM 66.2 °F 66.2 °F 100% 29.71 in 8.0 mi South 11.5 mph - 0.00 in   Overcast
12:53 AM 66.9 °F 66.0 °F 97% 29.71 in 7.0 mi SW 16.1 mph 27.6 mph 0.00 in   Overcast
1:13 AM 64.4 °F 60.8 °F 88% 29.73 in 7.0 mi West 9.2 mph 18.4 mph 0.03 in Rain Rain
1:53 AM 64.0 °F 61.0 °F 90% 29.70 in 10.0 mi South 3.5 mph - 0.04 in Rain Light Rain
2:53 AM 63.0 °F 62.1 °F 97% 29.65 in 10.0 mi SE 10.4 mph - 0.00 in   Overcast
3:53 AM 63.0 °F 61.0 °F 93% 29.66 in 10.0 mi South 4.6 mph - 0.00 in Rain Light Rain
4:53 AM 64.9 °F 61.0 °F 87% 29.64 in 10.0 mi South 9.2 mph - 0.00 in   Partly Cloudy
5:53 AM 64.0 °F 60.1 °F 87% 29.64 in 10.0 mi SW 8.1 mph - N/A   Clear
6:53 AM 60.1 °F 53.1 °F 78% 29.65 in 10.0 mi WSW 9.2 mph - N/A   Clear
7:53 AM 55.0 °F 48.0 °F 77% 29.67 in 10.0 mi West 8.1 mph - N/A   Clear
8:53 AM 55.9 °F 43.0 °F 62% 29.69 in 10.0 mi West 10.4 mph 18.4 mph N/A   Clear
9:53 AM 60.1 °F 41.0 °F 49% 29.70 in 10.0 mi West 17.3 mph 25.3 mph N/A   Clear
10:53 AM 60.1 °F 45.0 °F 57% 29.74 in 10.0 mi NW 21.9 mph 33.4 mph N/A   Clear
11:53 AM 60.1 °F 45.0 °F 57% 29.78 in 10.0 mi NNW 19.6 mph 33.4 mph N/A   Scattered Clouds
12:53 PM 63.0 °F 43.0 °F 48% 29.80 in 10.0 mi NNW 16.1 mph 32.2 mph N/A   Partly Cloudy
1:53 PM 66.0 °F 43.0 °F 43% 29.78 in 10.0 mi NW 16.1 mph 24.2 mph N/A   Clear
2:53 PM 68.0 °F 39.9 °F 36% 29.77 in 10.0 mi NNW 15.0 mph 25.3 mph N/A   Clear
3:53 PM 69.1 °F 39.0 °F 33% 29.76 in 10.0 mi NW 10.4 mph 20.7 mph N/A   Clear
4:53 PM 69.1 °F 37.9 °F 32% 29.78 in 10.0 mi NW 9.2 mph 18.4 mph N/A   Clear
5:53 PM 69.1 °F 39.0 °F 33% 29.77 in 10.0 mi NW 5.8 mph - N/A   Clear
6:53 PM 62.1 °F 39.0 °F 43% 29.79 in 10.0 mi Calm Calm - N/A   Clear
7:53 PM 55.9 °F 42.1 °F 60% 29.81 in 10.0 mi West 3.5 mph - N/A   Clear
8:53 PM 53.1 °F 42.1 °F 66% 29.83 in 10.0 mi SSW 3.5 mph - N/A   Clear
9:53 PM 51.1 °F 42.1 °F 71% 29.84 in 10.0 mi Calm Calm - N/A   Clear
10:53 PM 48.0 °F 43.0 °F 83% 29.85 in 10.0 mi Calm Calm - N/A   Clear
11:53 PM 45.0 °F 42.1 °F 90% 29.85 in 10.0 mi Calm Calm - N/A   Clear